Location: Cactus School
(34.5700°N, 118.0931°W)
Time: 10:36:28
(UTC-07:00)

A-11 Canister half - Visible Passes

Search period start: 23 April 2024 00:00
Search period end: 03 May 2024 00:00
Orbit: 1525 x 1683 km, 47.3° (Epoch: 22 April)

Date Brightness Start Highest point End Pass type
(mag) Time Alt. Az. Time Alt. Az. Time Alt. Az.
23 Apr 11.0 02:22:48 10° SE 02:23:56 10° ESE 02:25:04 10° ESE visible
23 Apr 9.6 04:20:48 22° SSW 04:27:21 53° SE 04:37:01 10° ENE visible
24 Apr 9.6 04:00:23 27° SSW 04:05:37 50° SE 04:15:10 10° ENE visible
25 Apr 9.6 03:39:56 33° S 03:43:53 47° SE 03:53:18 10° ENE visible
25 Apr 9.4 05:38:58 10° WSW 05:48:49 66° NNW 05:58:56 10° NE visible
26 Apr 9.6 03:19:24 37° SSE 03:22:10 44° SE 03:31:27 10° ENE visible
26 Apr 9.3 05:17:41 12° WSW 05:27:00 68° NNW 05:37:08 10° NE visible
27 Apr 9.6 02:58:49 39° SSE 03:00:26 42° SE 03:09:34 10° ENE visible
27 Apr 9.3 04:57:06 17° WSW 05:05:11 71° NNW 05:15:19 10° NE visible
28 Apr 9.7 02:38:10 39° SE 02:38:44 39° SE 02:47:41 10° ENE visible
28 Apr 9.2 04:36:27 23° WSW 04:43:22 73° NNW 04:53:30 10° NE visible
29 Apr 9.8 02:17:28 37° SE 02:17:28 37° SE 02:25:47 10° ENE visible
29 Apr 9.1 04:15:45 29° WSW 04:21:34 76° NNW 04:31:43 10° NE visible
30 Apr 9.9 01:56:43 33° ESE 01:56:43 33° ESE 02:03:54 10° ENE visible
30 Apr 9.1 03:54:59 36° WSW 03:59:46 79° NW 04:09:54 10° NE visible
01 May 10.1 01:35:55 29° ESE 01:35:55 29° ESE 01:41:58 10° ENE visible
01 May 9.0 03:34:11 44° WSW 03:37:59 82° NW 03:48:06 10° NE visible
02 May 10.3 01:15:04 25° E 01:15:04 25° E 01:20:03 10° ENE visible
02 May 9.0 03:13:20 53° WSW 03:16:12 85° NW 03:26:17 10° NE visible
02 May 9.9 05:13:06 10° W 05:22:25 44° NNW 05:31:58 10° ENE visible
